GFSFLT1_850_spd_060.txt.gz
Wind_Speed
13 12 12 15 18 22 21 15 21 24 29 32 32 31 39 40 34 31 33 36 28 27 27 28 26 21 20 22 20 19 16 15
14 13 14 15 20 21 22 26 24 28 32 37 39 37 39 47 42 28 34 28 40 31 26 29 24 20 20 24 21 19 18 16
16 16 15 16 17 19 22 23 26 28 29 33 38 42 42 45 42 37 32 33 37 37 32 30 29 20 23 23 23 18 16 21
20 19 18 16 16 20 19 22 22 27 24 27 39 42 40 44 42 45 40 39 37 37 35 33 32 29 27 25 22 21 17 20
22 21 20 18 17 15 16 21 24 26 32 32 37 45 49 50 46 47 46 43 34 34 37 34 33 31 27 26 24 22 23 18
24 23 21 18 17 17 17 19 25 30 30 33 35 42 46 46 48 49 39 49 44 37 38 37 35 31 26 23 20 21 22 22
23 22 21 20 19 18 19 25 26 30 32 33 36 40 45 47 50 49 46 46 43 40 43 41 37 30 30 33 28 22 27 25
25 26 26 24 24 23 21 26 28 29 35 36 35 42 42 46 56 53 49 44 47 47 48 44 40 36 36 31 35 33 30 26
26 28 27 27 26 26 25 26 28 31 37 38 37 37 37 44 52 54 52 47 48 48 47 49 51 51 44 41 40 35 31 31
25 29 29 28 29 30 28 26 27 28 34 40 40 37 34 38 47 56 49 46 50 52 49 49 49 48 44 40 46 43 36 36
21 28 30 29 28 29 30 28 28 28 30 33 34 37 35 34 38 49 49 48 51 52 53 53 53 51 53 49 50 44 42 40
17 22 26 27 26 28 31 32 31 31 31 32 33 35 35 35 37 42 44 48 45 48 42 46 45 44 41 41 43 41 40 42
14 17 21 26 29 30 32 33 34 33 32 33 34 34 35 38 40 40 44 44 53 54 50 50 50 48 49 46 46 46 44 43
7 14 18 21 25 29 31 34 37 35 34 34 35 37 39 41 43 45 41 43 45 44 45 55 59 61 62 60 58 55 53 48
6 9 13 17 21 25 28 31 33 34 34 36 38 40 42 42 41 41 43 43 40 41 43 49 55 53 56 57 56 55 51 51
12 14 12 13 17 21 25 27 29 32 34 37 44 44 42 40 40 40 40 42 44 42 45 46 50 52 45 45 43 47 51 51
18 13 13 15 18 21 24 27 29 29 33 36 35 37 41 43 40 40 40 42 41 40 42 42 42 44 48 49 49 50 52 51
21 19 15 14 16 20 23 26 24 29 31 32 32 33 35 36 36 35 37 38 37 39 41 40 42 40 42 48 48 49 46 46
25 24 23 20 16 16 19 21 25 28 30 30 31 31 32 30 30 32 31 30 30 30 31 33 37 39 38 40 38 37 36 40

GFSFLT1_850_spd_063.txt.gz
Wind_Speed
14 13 13 14 15 17 22 16 13 22 20 18 16 28 37 43 39 35 37 40 41 34 32 25 23 25 22 20 18 18 17 16
15 15 14 15 15 18 23 21 18 21 23 23 24 33 35 39 42 33 31 36 34 29 25 27 25 23 21 21 19 18 16 16
17 17 16 16 17 17 21 23 21 22 24 27 27 37 36 41 43 32 32 34 33 33 23 26 24 21 21 22 21 17 16 16
20 20 19 17 18 19 18 23 22 23 20 29 27 30 37 46 41 40 39 37 31 34 32 27 28 24 26 25 24 19 17 16
21 21 21 20 18 18 18 18 25 23 24 30 35 38 42 47 50 46 49 43 38 35 40 33 31 30 26 26 22 24 22 18
21 23 22 21 19 18 18 19 19 25 29 31 32 38 39 38 51 44 39 44 41 36 44 42 36 32 28 26 25 26 23 22
20 22 22 21 19 19 18 22 23 26 30 31 34 35 40 41 46 53 49 44 43 42 38 40 43 41 33 33 27 27 24 23
21 24 25 24 23 21 20 21 24 29 32 33 34 33 38 47 47 50 54 54 45 45 42 40 40 43 37 33 34 32 28 27
21 26 27 26 26 25 22 22 24 26 30 34 34 35 36 37 44 49 53 56 57 53 49 47 41 43 43 37 35 32 30 33
20 25 28 27 27 27 26 24 24 26 28 34 37 36 33 35 35 44 50 54 50 45 50 51 46 47 49 44 45 41 44 45
20 25 29 27 26 25 26 25 25 25 27 29 37 39 35 38 40 39 44 53 44 42 45 54 49 47 53 50 50 50 48 48
15 22 26 25 24 25 26 26 26 26 26 27 32 38 36 39 37 34 36 43 53 49 50 51 51 51 54 55 52 45 44 43
12 17 22 25 26 26 27 27 28 28 27 27 29 30 34 39 40 38 38 41 48 45 45 47 51 54 55 55 56 50 47 47
1 11 17 22 25 26 27 28 29 28 28 29 32 35 35 37 39 40 39 41 41 45 41 46 44 46 47 47 51 53 50 49
3 5 9 14 19 24 26 28 29 30 30 32 34 38 40 43 42 40 41 41 43 43 48 49 45 47 47 46 47 49 50 50
16 10 8 10 14 18 22 26 28 30 32 34 39 39 38 36 38 39 42 43 44 44 46 45 49 51 50 50 50 51 51 51
16 17 15 11 11 15 18 23 26 28 32 40 36 37 37 40 39 42 42 44 45 45 47 48 50 52 53 54 53 49 49 47
18 17 16 16 14 12 15 19 22 27 32 34 35 39 40 42 42 38 42 44 42 45 47 46 49 49 49 50 50 49 48 43
21 20 19 19 18 17 15 14 18 25 30 32 33 36 41 40 40 42 42 42 43 43 43 44 43 44 43 43 42 40 42 44

GFSFLT1_850_spd_066.txt.gz
Wind_Speed
17 15 14 14 16 15 15 16 13 15 12 10 12 15 20 34 40 45 39 39 35 30 25 33 31 24 27 21 22 22 22 20
18 17 16 17 19 20 18 18 17 18 15 16 12 17 37 39 38 43 48 39 39 35 26 30 29 27 27 24 23 22 18 21
21 20 19 21 21 19 21 23 20 18 16 16 17 23 34 38 39 41 46 41 45 37 33 33 34 28 27 28 24 23 18 22
26 23 22 21 22 21 20 23 23 17 19 21 22 25 33 37 36 37 39 44 42 40 33 26 27 28 26 27 27 24 26 25
30 27 25 25 23 23 18 18 25 22 24 27 25 34 39 43 43 39 39 39 42 40 38 33 31 31 30 26 24 28 25 27
28 29 27 25 23 25 19 19 22 24 27 30 28 35 35 41 44 44 42 40 41 40 41 39 36 35 29 31 30 31 30 26
22 27 26 25 25 27 25 24 18 28 28 31 33 34 36 44 51 49 45 44 45 47 37 41 36 36 36 32 31 31 32 33
20 28 28 28 28 28 22 27 23 25 32 32 31 34 37 41 49 52 50 49 49 50 42 43 40 39 39 36 36 36 34 32
19 25 27 29 31 29 26 28 27 27 32 36 34 34 34 40 41 48 54 54 57 55 52 50 44 44 41 39 38 39 32 34
19 21 28 28 31 30 28 28 25 28 31 35 38 36 37 38 40 44 50 54 52 52 54 53 55 48 50 46 48 48 42 38
25 24 28 30 29 28 29 27 28 27 29 33 37 40 39 38 39 39 45 49 50 54 53 51 56 52 47 46 47 50 47 43
15 22 26 28 26 27 29 29 26 30 28 28 36 40 40 43 42 41 42 41 48 53 55 52 49 52 51 52 50 47 51 53
5 9 18 26 24 25 28 28 29 29 28 27 28 36 40 43 41 40 41 41 38 43 53 50 52 53 52 54 54 53 51 54
7 7 12 20 20 23 24 26 27 28 28 29 30 30 36 42 40 41 42 43 41 39 46 52 54 54 55 57 58 56 56 56
27 24 3 10 15 20 23 24 26 26 29 31 33 34 34 33 39 41 42 44 41 40 43 51 54 57 58 55 59 59 60 61
22 25 25 26 5 14 18 22 26 28 30 34 36 35 36 34 35 38 39 42 45 45 46 47 48 50 52 50 49 50 50 51
19 21 22 24 24 19 15 14 23 26 31 35 34 36 37 41 42 41 40 42 44 45 48 48 48 52 53 52 51 49 49 49
18 20 21 21 17 15 15 16 13 23 30 34 35 36 37 40 41 41 45 47 45 48 50 48 52 51 52 53 54 52 50 49
17 17 14 18 19 18 17 15 14 15 18 31 33 34 37 38 38 42 44 43 43 44 46 46 44 46 47 46 47 47 48 52

GFSFLT1_850_spd_069.txt.gz
Wind_Speed
26 25 21 16 13 13 14 16 16 13 11 17 20 19 19 22 42 45 45 40 37 33 37 37 34 34 32 24 32 26 26 22
29 28 21 15 15 16 16 19 19 18 15 19 21 21 22 32 38 40 40 40 37 35 38 37 37 33 33 29 32 27 27 25
35 30 24 19 19 20 19 20 21 21 16 17 17 20 24 31 34 42 43 42 40 39 42 40 37 35 34 32 32 29 27 27
38 33 28 22 22 24 20 21 21 21 19 18 16 15 18 27 29 42 46 48 40 36 41 44 31 30 32 30 34 30 28 29
40 36 32 26 24 24 22 20 22 20 23 22 21 25 32 32 31 43 44 48 41 40 35 40 36 30 33 35 33 32 30 30
44 40 34 27 23 24 23 17 21 24 23 24 24 25 31 34 35 42 45 48 42 41 40 39 35 34 33 34 34 33 33 28
43 39 33 26 23 23 24 22 17 27 27 29 27 27 31 38 40 45 49 49 45 43 40 38 32 28 31 33 35 33 30 29
42 39 35 31 27 25 26 24 22 23 31 32 30 28 32 39 42 44 47 44 44 49 43 40 43 35 36 35 33 34 34 33
41 39 37 34 29 24 24 25 23 22 30 35 34 31 32 38 40 43 44 45 47 48 46 46 46 43 36 39 35 36 36 37
39 39 38 35 31 28 25 25 25 24 25 33 36 36 37 37 38 40 45 46 46 46 46 47 46 46 42 36 37 37 37 38
37 40 39 36 31 27 26 23 25 24 24 29 35 36 36 36 36 36 39 48 48 48 49 50 50 44 45 45 42 43 43 43
29 38 39 36 32 28 25 23 24 26 26 27 32 36 36 38 39 39 39 39 48 53 53 53 56 55 53 53 51 50 50 50
7 30 36 34 32 28 26 24 23 24 23 26 26 33 38 40 42 42 39 40 42 46 54 58 56 57 60 61 59 61 54 55
40 24 11 31 28 25 25 23 22 22 24 26 27 28 34 41 43 42 42 43 42 44 44 52 55 54 56 59 58 57 64 62
33 36 27 14 7 13 23 23 22 22 23 26 30 30 30 30 37 44 44 44 45 46 46 45 48 52 54 56 57 58 57 59
29 29 24 23 17 10 7 5 26 27 27 29 29 30 31 30 30 33 41 46 46 46 44 44 45 47 54 57 59 57 58 56
27 25 26 25 21 16 13 12 12 6 35 35 30 32 33 34 34 33 34 40 44 45 47 48 48 48 51 55 57 55 54 56
22 24 23 22 23 22 19 16 13 9 7 18 30 37 35 37 38 38 38 38 40 44 46 49 51 50 49 50 50 53 55 55
18 18 18 21 20 18 18 17 17 14 12 12 7 20 30 35 43 42 43 43 43 43 44 45 47 49 49 49 49 50 52 53

GFSFLT1_850_spd_072.txt.gz
Wind_Speed
34 28 23 20 17 13 17 22 20 20 16 16 18 15 15 23 28 30 35 36 36 38 40 40 38 39 38 39 43 32 28 25
35 29 25 22 19 17 19 21 21 21 18 18 22 24 23 27 27 33 39 40 38 38 39 40 39 40 39 37 36 31 29 26
37 32 30 27 22 19 19 20 22 20 17 17 26 25 26 26 28 33 40 41 41 38 39 41 39 41 40 34 36 37 34 30
40 37 35 32 26 23 21 18 18 21 20 16 20 24 24 27 30 41 45 44 39 38 39 44 42 42 42 35 37 38 36 34
45 43 40 35 29 24 21 19 18 21 21 21 22 23 28 31 35 38 32 39 40 38 38 41 43 40 40 39 36 39 36 37
48 48 45 37 31 27 24 20 16 21 22 21 23 21 20 22 27 33 38 43 42 40 38 40 44 44 41 37 36 36 37 35
49 47 43 38 31 27 25 23 18 18 23 22 23 21 20 21 27 29 31 40 42 38 37 40 41 44 36 35 39 39 34 35
44 46 44 39 34 30 28 25 22 18 24 23 24 24 22 23 26 28 31 40 46 44 37 35 38 42 30 27 30 38 38 35
50 49 45 40 36 32 29 27 25 21 22 27 28 27 26 24 26 30 36 44 46 48 42 39 36 35 32 36 35 34 39 39
48 47 42 40 37 32 29 26 25 22 20 26 30 31 30 28 30 33 37 42 48 52 49 48 45 43 41 36 36 37 38 37
42 43 43 40 36 31 27 23 21 21 20 23 29 33 32 30 32 38 39 40 45 49 50 48 51 46 44 44 42 39 42 40
31 40 40 38 34 30 26 24 22 21 22 20 26 31 36 34 33 37 39 40 42 44 45 45 47 50 49 49 48 47 46 46
19 16 19 27 31 31 26 24 22 18 18 19 22 25 33 38 39 36 37 38 38 40 44 49 50 51 51 51 52 52 53 51
28 20 16 11 9 18 20 22 22 18 16 18 20 23 24 33 37 37 37 37 38 39 40 46 52 52 52 55 55 55 54 55
36 32 29 23 16 10 8 12 17 22 24 24 23 24 24 25 26 32 40 41 40 42 43 44 46 49 55 57 59 60 60 61
33 30 27 24 20 16 10 5 7 14 21 27 30 29 29 29 30 30 30 33 40 42 44 45 47 47 51 51 55 60 61 61
26 23 26 25 22 16 12 7 4 2 6 14 17 24 30 34 34 32 33 35 36 37 41 46 49 52 51 50 51 50 53 55
21 22 22 22 21 18 17 14 7 3 2 2 15 18 18 25 30 35 40 41 39 40 40 40 44 49 49 46 45 48 50 52
21 20 20 20 20 20 18 17 15 12 10 6 5 6 12 16 22 28 35 38 43 45 45 43 43 42 42 42 42 44 46 48

GFSFLT1_850_spd_075.txt.gz
Wind_Speed
41 37 31 27 25 18 15 16 18 18 17 18 14 13 12 11 20 27 31 36 40 45 43 43 43 44 45 48 47 40 34 28
44 38 33 29 27 22 19 19 21 20 20 18 15 16 9 16 14 26 35 31 36 36 38 40 41 43 44 47 46 38 31 27
38 38 36 33 30 24 21 21 21 20 21 18 16 18 13 17 23 23 21 27 32 33 36 39 42 41 44 45 46 39 32 28
37 40 40 36 33 27 22 22 21 20 21 17 18 20 19 22 24 22 29 33 37 37 36 39 41 41 43 43 46 40 37 31
40 43 43 40 35 28 22 21 19 19 19 19 18 25 27 27 28 26 28 34 37 39 40 39 39 38 40 40 44 42 36 37
44 47 47 43 37 31 26 22 20 18 18 19 17 24 25 24 25 28 31 36 39 39 40 43 39 38 41 39 37 37 37 38
45 44 45 43 37 32 28 25 21 18 18 21 20 22 23 27 28 31 29 27 40 42 38 39 39 40 39 41 38 36 38 39
37 43 45 43 41 35 30 28 25 20 19 20 22 20 18 19 22 25 30 31 28 33 36 40 41 42 41 39 42 40 41 41
41 49 48 45 41 36 33 30 27 23 20 20 21 21 20 18 19 26 27 32 34 32 39 37 36 38 42 41 39 42 34 38
42 46 48 43 41 38 34 29 28 24 20 20 22 22 22 21 18 20 27 31 33 32 37 37 37 39 41 42 42 37 34 41
31 39 44 40 41 36 32 27 25 22 20 20 21 22 24 22 20 20 21 24 26 30 42 40 37 34 36 38 39 35 36 34
17 19 25 32 32 33 29 25 23 22 18 18 19 22 24 24 23 22 23 23 25 29 34 41 42 39 37 34 35 35 37 39
19 14 12 15 21 27 25 22 19 17 14 17 16 18 20 25 25 24 24 27 29 30 32 36 43 45 44 44 44 45 47 47
33 30 26 20 13 11 11 13 14 13 12 14 14 15 17 19 24 26 26 26 30 33 36 37 40 43 47 49 47 52 54 53
35 33 30 28 21 16 11 9 9 10 12 13 15 15 17 18 18 19 21 25 30 31 34 36 38 40 43 45 49 51 54 56
30 29 28 26 23 18 12 7 7 10 10 9 11 15 18 21 23 24 24 26 28 28 33 37 39 41 43 44 45 49 54 57
24 26 26 24 21 17 13 11 10 6 5 11 15 17 18 19 20 22 26 30 31 32 35 36 37 40 43 45 45 47 49 51
20 24 26 24 22 16 15 12 8 6 6 5 6 9 10 14 20 23 25 28 29 34 37 38 39 40 41 42 43 47 50 51
19 21 22 20 17 17 14 12 10 8 6 4 1 2 4 7 11 15 21 25 29 32 35 35 36 38 45 45 45 43 43 47

GFSFLT1_850_spd_078.txt.gz
Wind_Speed
29 42 40 35 30 26 23 19 16 18 17 16 15 15 15 17 18 22 31 34 36 34 44 42 43 38 48 46 41 38 35 29
25 38 40 36 31 29 26 20 19 20 20 19 18 15 13 11 16 19 28 32 34 47 39 37 41 38 48 47 43 38 34 29
28 36 40 37 34 33 27 22 20 21 20 18 18 14 12 12 11 10 33 28 34 47 43 41 40 40 47 48 46 41 35 31
30 34 39 40 38 35 30 23 21 22 20 18 15 13 13 14 15 10 15 20 32 32 31 34 36 38 43 46 48 45 38 35
27 36 34 42 40 37 29 23 21 22 20 18 17 17 18 19 19 19 17 21 21 30 28 26 29 35 41 44 48 46 42 38
30 38 31 42 41 37 30 25 21 20 18 16 14 17 20 21 21 19 21 23 25 30 39 33 30 35 39 41 47 46 42 38
25 29 31 40 41 36 31 27 23 20 18 14 15 14 19 21 20 20 20 20 23 29 38 40 36 33 35 38 41 42 43 39
19 25 32 40 42 38 35 30 25 20 17 14 15 15 17 20 20 19 21 23 23 34 35 40 41 42 41 35 35 36 44 41
25 26 31 40 43 40 36 32 25 20 17 14 14 16 14 14 15 17 21 24 24 27 41 38 43 44 43 41 43 43 41 41
26 30 33 39 42 42 37 31 23 19 16 14 14 15 16 16 12 12 15 17 21 20 19 23 25 33 40 44 44 46 43 41
11 23 28 31 32 33 31 28 21 18 16 13 13 15 14 14 13 11 13 17 19 22 22 23 27 30 33 37 42 49 43 45
10 14 18 23 25 24 25 24 19 17 14 11 10 11 13 14 13 12 12 12 18 21 24 26 27 30 30 31 34 39 43 44
17 15 17 22 23 21 21 19 15 12 10 8 9 7 10 13 14 15 14 14 13 15 16 21 25 33 32 32 32 33 38 38
29 28 23 21 19 18 14 11 9 9 8 6 8 7 6 8 9 11 14 15 15 16 19 20 23 27 32 36 35 36 37 37
26 29 28 27 26 21 17 14 12 9 7 6 6 6 5 6 7 8 8 9 13 17 20 23 25 27 29 32 36 39 42 45
23 23 23 23 23 21 17 13 10 9 8 9 10 9 7 7 9 11 12 12 13 14 17 18 23 27 31 32 34 37 38 40
21 19 20 19 20 19 16 15 13 10 11 13 11 11 10 11 14 15 15 16 17 18 20 21 24 27 29 30 32 36 39 41
18 20 23 21 20 16 15 14 13 13 11 9 8 8 7 11 13 15 17 17 19 21 24 25 23 25 32 33 35 37 38 41
16 20 20 18 17 19 17 15 11 10 9 7 5 4 4 6 8 10 13 17 19 21 23 25 26 33 37 40 39 36 36 39

GFSFLT1_850_spd_084.txt.gz
Wind_Speed
21 16 15 18 22 25 27 29 28 27 24 19 20 19 24 24 25 25 25 27 26 27 31 33 35 38 36 33 32 25 24 23
21 17 13 18 21 24 27 30 29 29 26 23 23 21 23 25 27 28 27 28 30 28 35 36 36 41 38 38 36 28 27 25
23 21 16 18 21 24 29 32 31 31 26 23 24 23 20 19 19 22 26 28 30 33 32 40 41 41 42 41 41 33 29 28
24 25 22 19 23 26 30 33 33 31 25 23 18 18 18 19 19 20 21 23 27 32 36 36 50 43 45 46 46 39 34 30
25 25 26 24 24 25 29 32 31 30 26 23 18 17 19 15 19 17 14 17 20 24 37 37 37 45 44 39 47 43 31 33
23 22 27 24 23 26 26 32 31 30 25 19 17 16 15 12 14 15 12 10 8 8 26 31 35 48 44 38 43 42 35 33
16 19 21 23 23 26 30 36 35 29 25 20 18 17 15 15 16 16 12 8 7 8 18 33 30 41 40 43 42 42 37 32
12 10 17 22 27 30 34 37 35 30 24 20 19 15 14 18 18 17 18 13 13 10 15 31 33 28 26 32 35 35 43 39
13 8 14 19 25 28 33 36 35 31 24 21 19 16 15 19 20 20 17 14 16 17 15 18 21 26 24 27 24 26 37 38
19 5 13 17 22 26 32 34 33 31 25 21 21 18 14 19 20 18 17 15 15 15 16 17 23 26 30 29 32 30 30 37
19 6 8 13 17 23 27 25 30 31 25 22 20 20 16 16 16 16 17 16 17 18 16 20 22 30 32 36 38 38 39 36
20 7 4 11 15 21 29 26 27 29 25 22 20 20 21 19 16 13 12 13 13 14 16 13 18 28 33 34 39 41 39 39
18 8 6 12 16 20 27 22 24 25 23 22 19 19 20 20 17 13 13 10 13 15 15 13 12 13 25 40 39 39 40 43
15 12 15 13 13 17 21 25 24 22 21 19 18 18 20 19 18 16 15 13 11 13 16 16 16 17 17 23 27 36 39 40
15 13 16 17 20 22 22 23 24 23 20 17 16 14 14 17 17 13 13 13 12 11 10 12 14 17 18 19 24 26 29 29
15 13 12 16 20 23 24 25 24 24 23 22 20 18 16 15 15 14 12 11 10 9 8 10 10 10 18 19 19 21 24 26
12 11 12 13 16 19 20 23 24 23 23 22 19 17 16 16 18 18 17 15 14 14 15 16 19 20 21 22 23 24 22 23
15 14 13 13 15 15 18 20 21 21 21 20 18 16 15 15 15 15 15 14 14 15 15 16 18 20 21 21 21 22 25 28
16 16 17 17 16 17 19 20 20 20 19 14 14 14 12 12 13 12 11 10 11 12 12 13 15 17 19 19 21 22 24 27

GFSFLT1_850_spd_087.txt.gz
Wind_Speed
25 27 31 30 27 26 29 28 25 25 21 20 19 19 16 22 24 21 20 22 24 27 31 31 26 26 29 30 29 28 24 24
22 27 30 24 23 27 30 29 27 26 30 26 22 21 17 21 23 22 23 24 24 26 27 31 29 36 32 36 36 32 28 28
26 26 29 22 24 27 29 28 27 33 30 21 20 17 15 15 21 22 25 26 26 26 26 24 32 33 31 39 41 37 32 32
25 26 30 23 24 26 29 28 27 28 22 20 16 14 14 16 17 18 18 20 22 24 27 29 32 39 32 41 41 41 38 33
25 26 30 28 25 25 27 28 28 27 24 22 20 18 16 15 15 15 16 22 20 23 25 28 32 35 40 39 43 45 39 36
23 28 28 31 28 26 27 28 28 28 26 23 20 17 13 14 14 17 16 20 19 22 25 32 35 36 47 46 48 49 41 39
11 14 19 27 30 27 27 28 29 30 28 23 20 18 15 14 15 18 18 15 15 16 16 16 31 34 45 47 46 51 41 37
13 11 18 23 25 26 27 30 33 30 28 23 20 17 16 15 15 19 18 14 9 6 5 12 27 28 37 40 46 39 46 36
12 15 12 18 20 25 30 33 36 33 27 23 20 17 14 14 17 18 17 14 10 9 7 5 21 30 26 37 43 36 41 37
16 20 7 12 19 28 30 32 35 31 26 23 20 18 16 16 16 15 14 13 12 10 11 8 12 24 28 34 40 40 37 34
17 18 9 8 17 18 21 34 28 29 24 22 19 18 16 15 16 16 14 11 11 12 12 14 14 16 22 26 30 29 29 25
18 16 11 3 11 11 22 28 26 28 23 21 19 20 16 16 17 16 15 14 14 14 15 15 16 17 22 24 25 25 27 33
15 14 12 8 6 11 21 26 26 26 19 19 20 21 19 18 18 15 12 11 10 10 15 14 15 18 21 28 29 31 30 31
13 12 13 11 8 11 16 20 23 23 19 18 18 18 21 19 16 16 11 10 12 12 13 12 12 11 11 23 26 27 27 30
12 11 11 10 12 15 19 17 21 21 19 18 19 18 17 16 20 15 16 14 11 12 12 11 11 11 11 12 21 27 31 33
14 11 10 8 10 17 19 21 24 24 24 22 20 20 18 19 21 16 14 15 14 12 10 10 14 17 17 18 15 14 20 20
12 9 9 9 9 13 17 21 23 24 25 24 22 20 20 21 22 20 17 16 16 15 16 17 17 17 17 16 15 15 19 25
13 12 11 10 9 8 13 17 20 24 24 22 21 20 20 21 22 21 19 19 19 19 18 18 17 16 17 18 20 22 22 21
15 15 13 14 11 10 12 15 17 22 22 20 19 19 20 19 20 19 18 17 16 17 17 16 15 16 18 20 21 22 23 25